Weather History for Indianapolis, IN

Change the Weather History Date:

Thursday, October 3, 2013

  Actual Average Record
Temperature  
Mean Temperature 74 °F 60 °F  
Max Temperature 82 °F 70 °F 90 °F (1954)
Min Temperature 66 °F 49 °F 27 °F (1974)
Degree Days  
Heating Degree Days 0 7  
Month to date heating degree days 0 20  
Since 1 July heating degree days 34 95  
Cooling Degree Days 9 1  
Month to date cooling degree days 18 4  
Year to date cooling degree days 1147 1053  
Growing Degree Days 24 (Base 50)    
Moisture  
Dew Point 65 °F    
Average Humidity 74    
Maximum Humidity 93    
Minimum Humidity 54    
Precipitation  
Precipitation 0.03 in 0.11 in 2.61 in (1986)
Month to date precipitation 0.03 0.32  
Year to date precipitation 32.82 32.77  
Snow  
Snow 0.00 in 0.00 in 0.00 in ()
Month to date snowfall 0.0 0.0  
Since 1 July snowfall 0.0 0.0  
Since 1 September snowfall 0.0 0.0  
Snow Depth 0.00 in    
Sea Level Pressure  
Sea Level Pressure 30.01 in    
Wind  
Wind Speed 10 mph (SSW)    
Max Wind Speed 20 mph    
Max Gust Speed 25 mph    
Visibility 9 miles    
Events Rain    
T = Trace of Precipitation, MM = Missing Value Source: NWS Daily Summary

Daily Weather History Graph

Daily Weather History Graph

Search for Another Location

Airport:

Trip Planner

Search our weather history database for the weather conditions in past years. The results will help you decide how hot, cold, wet, or windy it might be!

Date:

Astronomy

Oct. 03, 2013 Rise Set
Actual Time 7:43 AM EDT 7:24 PM EDT
Civil Twilight 7:16 AM EDT 7:50 PM EDT
Nautical Twilight 6:45 AM EDT 8:22 PM EDT
Astronomical Twilight 6:13 AM EDT 8:53 PM EDT
Moon 6:16 AM EDT (10/3) 6:32 PM EDT (10/3)
Length of Visible Light 12h 34m
Length of Day
11h 40m
Waning Crescent, 2% of the Moon is Illuminated
Oct 3
Waning Crescent
Oct 4
New
Oct 11
First Quarter
Oct 18
Full
Oct 26
Last Quarter

Hourly Weather History & Observations

Time (EDT) Temp. Heat Index Dew Point Humidity Pressure Visibility Wind Dir Wind Speed Gust Speed Precip Events Conditions
12:10 AM 69.8 °F - 66.2 °F 88% 30.03 in 8.0 mi SE 6.9 mph - N/A   Overcast
12:54 AM 69.1 °F - 66.0 °F 90% 30.02 in 7.0 mi South 9.2 mph - N/A Rain Light Rain
1:03 AM 69.8 °F - 66.2 °F 88% 30.03 in 7.0 mi SSW 10.4 mph - N/A Rain Light Rain
1:14 AM 69.8 °F - 66.2 °F 88% 30.02 in 7.0 mi South 6.9 mph - N/A   Overcast
1:54 AM 68.0 °F - 66.0 °F 93% 30.01 in 6.0 mi South 4.6 mph - N/A   Overcast
2:54 AM 68.0 °F - 64.9 °F 90% 30.01 in 9.0 mi SW 4.6 mph - N/A   Overcast
3:54 AM 66.9 °F - 64.0 °F 90% 30.01 in 10.0 mi SW 4.6 mph - N/A   Overcast
4:54 AM 68.0 °F - 64.0 °F 87% 30.01 in 10.0 mi South 6.9 mph - N/A   Overcast
5:54 AM 66.9 °F - 64.0 °F 90% 30.02 in 8.0 mi SSW 6.9 mph - N/A Rain Light Rain
6:54 AM 66.9 °F - 64.9 °F 93% 30.03 in 8.0 mi South 5.8 mph - N/A   Overcast
7:54 AM 66.0 °F - 64.9 °F 96% 30.03 in 6.0 mi SSW 5.8 mph - N/A   Mostly Cloudy
8:43 AM 66.2 °F - 64.4 °F 94% 30.05 in 4.0 mi SSW 5.8 mph - N/A   Overcast
8:52 AM 66.2 °F - 64.4 °F 94% 30.05 in 5.0 mi SSW 5.8 mph - N/A   Mostly Cloudy
8:54 AM 66.9 °F - 64.9 °F 93% 30.04 in 5.0 mi SSW 5.8 mph - N/A   Mostly Cloudy
9:54 AM 69.1 °F - 66.0 °F 90% 30.05 in 10.0 mi SSW 8.1 mph - N/A   Mostly Cloudy
10:54 AM 72.0 °F - 66.0 °F 81% 30.04 in 10.0 mi SSW 10.4 mph - N/A   Mostly Cloudy
11:54 AM 73.9 °F - 66.0 °F 76% 30.04 in 10.0 mi SSW 12.7 mph - N/A   Mostly Cloudy
12:54 PM 75.9 °F - 64.9 °F 69% 30.03 in 10.0 mi SSW 12.7 mph - N/A   Mostly Cloudy
1:54 PM 77.0 °F - 64.0 °F 64% 30.00 in 10.0 mi South 12.7 mph - N/A   Mostly Cloudy
2:54 PM 79.0 °F - 64.0 °F 60% 29.99 in 10.0 mi SSW 13.8 mph - N/A   Mostly Cloudy
3:54 PM 81.0 °F 82.2 °F 63.0 °F 54% 29.96 in 10.0 mi South 16.1 mph - N/A   Mostly Cloudy
4:54 PM 81.0 °F 81.9 °F 62.1 °F 52% 29.96 in 10.0 mi South 17.3 mph - N/A   Mostly Cloudy
5:54 PM 79.0 °F - 63.0 °F 58% 29.96 in 10.0 mi South 13.8 mph - N/A   Scattered Clouds
6:54 PM 77.0 °F - 64.0 °F 64% 29.95 in 10.0 mi South 12.7 mph - N/A   Scattered Clouds
7:54 PM 73.9 °F - 64.0 °F 71% 29.96 in 10.0 mi South 8.1 mph - N/A   Scattered Clouds
8:54 PM 73.0 °F - 64.9 °F 76% 29.97 in 10.0 mi SSE 10.4 mph - N/A   Scattered Clouds
9:54 PM 71.1 °F - 64.9 °F 81% 29.99 in 10.0 mi South 8.1 mph - N/A   Scattered Clouds
10:54 PM 71.1 °F - 64.9 °F 81% 29.99 in 10.0 mi South 10.4 mph - N/A   Mostly Cloudy